Location: Bishop's University Astronomical Observatory
(45.3661°N, 71.8475°W)
Time: 04:50:05
(UTC-04:00)

CZ-4C R/B - Visible Passes

Search period start: 24 June 2017 00:00
Search period end: 04 July 2017 00:00
Orbit: 715 x 1287 km, 63.4° (Epoch: 23 June)

Date Brightness Start Highest point End Pass type
(mag) Time Alt. Az. Time Alt. Az. Time Alt. Az.
24 Jun 2.5 01:22:53 27° WSW 01:25:52 62° NW 01:31:58 10° NE visible
24 Jun 4.5 03:11:28 10° WNW 03:15:46 21° NNW 03:20:30 10° NNE visible
25 Jun 2.3 00:09:43 43° SSE 00:11:00 53° ESE 00:16:46 10° NE visible
25 Jun 3.7 01:54:51 10° W 01:59:48 34° NW 02:05:29 10° NNE visible
25 Jun 4.8 03:46:40 10° NW 03:50:25 16° N 03:54:28 10° NNE visible
25 Jun 3.6 22:56:27 18° ESE 22:56:47 19° ESE 23:00:36 10° ENE visible
26 Jun 2.3 00:41:35 29° SW 00:44:24 74° NW 00:50:32 10° NE visible
26 Jun 4.5 02:29:39 10° WNW 02:34:06 23° NNW 02:39:02 10° NNE visible
26 Jun 4.9 04:21:29 10° NNW 04:25:12 16° N 04:29:11 10° NE visible
26 Jun 2.5 23:28:14 35° SSE 23:29:41 43° ESE 23:35:14 10° NE visible
27 Jun 3.4 01:13:21 11° WSW 01:18:14 39° NW 01:24:04 10° NNE visible
27 Jun 4.8 03:04:50 10° NW 03:08:41 17° NNW 03:12:53 10° NNE visible
27 Jun 3.7 22:14:46 14° ESE 22:15:35 15° ESE 22:18:33 10° ENE visible
27 Jun 2.1 23:59:53 26° SW 00:02:59 88° NW 00:09:04 10° NE visible
28 Jun 4.3 01:47:50 10° W 01:52:27 25° NNW 01:57:36 10° NNE visible
28 Jun 5.0 03:39:48 10° NW 03:43:27 16° N 03:47:22 10° NE visible
28 Jun 2.8 22:46:15 25° SSE 22:48:23 35° ESE 22:53:38 10° NE visible
29 Jun 3.2 00:31:31 10° WSW 00:36:41 46° NW 00:42:39 10° NNE visible
29 Jun 4.8 02:22:58 10° WNW 02:26:58 18° NNW 02:31:20 10° NNE visible
29 Jun 5.1 04:14:06 10° NNW 04:18:14 17° NNE 04:22:42 10° NE visible
29 Jun 3.9 21:32:50 10° ESE 21:34:23 11° ESE 21:35:59 10° E visible
29 Jun 2.1 23:17:30 17° SSW 23:21:35 77° SE 23:27:37 10° NE visible
30 Jun 4.2 01:06:04 10° W 01:10:49 27° NNW 01:16:10 10° NNE visible
30 Jun 5.0 02:58:04 10° NW 03:01:42 16° N 03:05:38 10° NNE visible
30 Jun 3.0 22:03:19 13° SSE 22:07:07 28° ESE 22:11:59 10° NE visible
30 Jun 2.9 23:49:57 10° WSW 23:55:11 54° NW 00:01:15 10° NNE visible
01 Jul 4.8 01:41:07 10° WNW 01:45:16 19° NNW 01:49:50 10° NNE visible
01 Jul 5.1 03:32:33 10° NNW 03:36:30 16° N 03:40:46 10° NE visible
01 Jul 2.1 22:35:02 10° SSW 22:40:12 63° ESE 22:46:08 10° NE visible
02 Jul 4.1 00:24:19 10° W 00:29:13 31° NNW 00:34:45 10° NNE visible
02 Jul 5.1 02:16:17 10° NW 02:19:57 16° N 02:23:56 10° NNE visible
02 Jul 5.2 04:06:24 10° NNW 04:11:12 20° NNE 04:16:27 10° ENE visible
02 Jul 3.3 21:21:52 10° SSE 21:25:53 23° ESE 21:30:14 10° ENE visible
02 Jul 2.6 23:08:25 10° SW 23:13:42 64° NW 23:19:49 10° NE visible
03 Jul 4.8 00:59:16 10° WNW 01:03:35 21° NNW 01:08:21 10° NNE visible
03 Jul 5.2 02:50:57 10° NNW 02:54:45 16° N 02:58:51 10° NE visible
03 Jul 2.3 21:53:48 10° SSW 21:58:52 51° ESE 22:04:36 10° NE visible
03 Jul 3.9 23:42:36 10° WSW 23:47:38 35° NW 23:53:21 10° NNE visible
